Regional Weather Roundup
Issued by NWS

Home | Current Version | Previous Version | Graphics & Text | Print | Product List | Glossary Off
Versions: 1 2 3 4 5 6 7 8 9 10 11 12 13 14 15 16 17 18 19 20 21 22 23 24 25 26 27 28 29 30 31 32 33 34 35 36 37 38 39 40 41 42 43 44 45 46 47 48 49 50

000
ASUS43 KDMX 051603
RWRIA

WEATHER ROUNDUP FOR IOWA
NATIONAL WEATHER SERVICE DES MOINES IA
1100 AM CDT THU MAY 05 2016

NOTE: "FAIR" INDICATES FEW OR NO CLOUDS BELOW 12,000 FEET WITH NO
SIGNIFICANT WEATHER AND/OR OBSTRUCTIONS TO VISIBILITY.

* - THESE STATIONS ARE NOT NWS STATIONS...THUS NOT UNDER NWS
QUALITY CONTROL.  THEY ALSO DO NOT REPORT WEATHER SUCH
AS PRECIPITATION OR FOG.

IAZ001>003-012>014-020>022-031>034-043>046-051700-
   NORTHWEST IOWA

CITY           SKY/WX    TMP DP  RH WIND       PRES   REMARKS
CARROLL *      SUNNY     63  36  36 CALM      30.09S
CHEROKEE *     SUNNY     63  41  45 CALM      30.09S
DENISON *      SUNNY     64  36  34 VRB5      30.07S
LE MARS *      SUNNY     66  39  37 S6        30.08S
ORANGE CITY *  SUNNY     66  37  34 SW5       30.07S
SHELDON *      SUNNY     66  36  32 S6        30.06S
SIOUX CITY     SUNNY     68  44  42 S5        30.07F
SPENCER        SUNNY     64  33  31 SW9       30.08F
STORM LAKE *   SUNNY     64  30  27 SW6       30.09F
$$

IAZ055>058-069>071-079>083-090>094-051700-
   SOUTHWEST IOWA

CITY           SKY/WX    TMP DP  RH WIND       PRES   REMARKS
ATLANTIC *     SUNNY     63  34  34 CALM      30.09F
AUDUBON *      SUNNY     64  34  32 S3        30.10S
CLARINDA *       N/A     64  37  36 MISG      30.11S
COUNCIL BLFS * SUNNY     64  41  42 CALM      30.09S
CRESTON *      SUNNY     61  36  39 E3        30.11S
HARLAN  *      SUNNY     64  32  29 S5        30.12F
LAMONI         SUNNY     60  35  39 CALM      30.09S
RED OAK *      SUNNY     64  36  34 S5        30.10S
SHENANDOAH *   SUNNY     66  37  34 CALM      30.10S
$$

IAZ047>049-059>061-072>074-084-051700-
   CENTRAL IOWA

CITY           SKY/WX    TMP DP  RH WIND       PRES   REMARKS
AMES           MOSUNNY   58  36  43 SE3       30.11S
ANKENY *       CLOUDY    59  34  38 CALM      30.11S
BOONE *        MOSUNNY   59  27  29 SE3       30.09S
CHARITON *     CLOUDY    57  34  41 NE7       30.10S
DES MOINES     CLOUDY    61  31  32 E3        30.11R
GRINNELL*      MOSUNNY   57  32  38 N3        30.10S
KNOXVILLE *    CLOUDY    57  34  41 VRB5      30.09S
MARSHALLTOWN   CLOUDY    57  34  41 NE7       30.10R
NEWTON *       CLOUDY    57  36  44 NW5       30.10S
PERRY *          N/A     61  32  33 CALM      30.10S
$$

IAZ004>006-015-016-023>025-035-036-051700-
   NORTH CENTRAL IOWA

CITY           SKY/WX    TMP DP  RH WIND       PRES   REMARKS
ALGONA *       SUNNY     61  32  33 S9        30.09F
CLARION *      SUNNY     61  28  29 VRB3      30.09F
ESTHERVILLE    SUNNY     62  33  33 SW12      30.07F
FORT DODGE *   SUNNY     61  36  39 S6        30.10F
MASON CITY     MOSUNNY  N/A N/A N/A VRB5      30.10F
FOREST CITY *    N/A     59  30  33 S5        30.10S
WEBSTER CITY * SUNNY     61  28  29 CALM      30.08S
IOWA FALLS *     N/A     59  32  36 CALM      30.11S
$$

IAZ007>011-017>019-026>030-037>042-050>054-066-051700-
   NORTHEAST IOWA

CITY           SKY/WX    TMP DP  RH WIND       PRES   REMARKS
CEDAR RAPIDS   SUNNY     57  40  52 NW8       30.08S
CHARLES CITY * MOSUNNY   54  34  47 CALM      30.10F
CLINTON *      SUNNY     53  40  61 N6        30.08S
DECORAH *      SUNNY     55  34  44 CALM      30.07F
DUBUQUE        SUNNY     54  39  57 NE8       30.07S
MONTICELLO *   SUNNY     57  37  47 NW10      30.08S
OELWEIN *      MOSUNNY   57  36  44 NW7       30.09F
WATERLOO       CLOUDY    54  34  46 NW6       30.10S
$$

IAZ064-065-067-068-078-051700-
   EAST CENTRAL IOWA

CITY           SKY/WX    TMP DP  RH WIND       PRES   REMARKS
DAVENPORT      SUNNY     54  37  52 N8        30.08R
IOWA CITY      SUNNY     58  39  49 N8        30.10S
MT. PLEASANT * SUNNY     59  39  47 N9        30.09S
MUSCATINE *    SUNNY     55  39  54 NE9       30.09S
QUAD CITIES    SUNNY     55  37  50 NE8       30.07R
$$

IAZ062-063-075>077-085>089-095>099-051700-
   SOUTHEAST IOWA

CITY           SKY/WX    TMP DP  RH WIND       PRES   REMARKS
BURLINGTON     SUNNY     56  42  59 NE8       30.07S
FAIRFIELD *    SUNNY     57  37  47 N10       30.09S
FORT MADISON * SUNNY     55  41  58 N8        30.08S
KEOKUK *       SUNNY     57  39  51 N9        30.08R
OSKALOOSA *      N/A     58  34  40 N8        30.10S
OTTUMWA        SUNNY     58  35  42 N7        30.09S
WASHINGTON *   SUNNY     55  37  50 VRB7G13   30.10S
$$

ABBREVIATIONS USED IN REMARKS
   TC - TEMPERATURES IN CELSIUS
  WCI - WIND CHILL INDEX
   HX - HEAT INDEX
  VSB - VISIBILITY
$$





USA.gov is the U.S. government's official web portal to all federal, state and local government web resources and services.